Hourly Weather Osetno

Today, 3 July, Friday

Time Temperature Precipitation Wind Pressure Humidity
00:00 +17°C° 0 mm 2 mps 745 mmHg 96%
01:00 +16°C° 0 mm 2 mps 745 mmHg 96%
02:00 +16°C° 0 mm 1 mps 746 mmHg 97%
03:00 +16°C° 0 mm 1 mps 746 mmHg 96%
04:00 +16°C° 0 mm 1 mps 746 mmHg 95%
05:00 +16°C° 0 mm 1 mps 746 mmHg 95%
06:00 +18°C° 0 mm 1 mps 746 mmHg 86%
07:00 +20°C° 0 mm 1 mps 746 mmHg 77%
08:00 +21°C° 0 mm 1 mps 747 mmHg 68%
09:00 +22°C° 0 mm 1 mps 747 mmHg 62%
10:00 +23°C° 0 mm 1 mps 747 mmHg 56%
11:00 +25°C° 0 mm 1 mps 747 mmHg 50%
12:00 +25°C° 0 mm 2 mps 747 mmHg 49%
13:00 +26°C° 0 mm 2 mps 746 mmHg 47%
14:00 +26°C° 0 mm 2 mps 746 mmHg 45%
15:00 +26°C° 0 mm 2 mps 746 mmHg 48%
16:00 +26°C° 0 mm 1 mps 746 mmHg 51%
17:00 +25°C° 0 mm 1 mps 746 mmHg 53%
18:00 +24°C° 0 mm 1 mps 746 mmHg 61%
19:00 +22°C° 0 mm 1 mps 746 mmHg 69%
20:00 +21°C° 0 mm 1 mps 746 mmHg 76%
21:00 +20°C° 0 mm 1 mps 746 mmHg 78%
22:00 +19°C° 0 mm 1 mps 746 mmHg 79%
23:00 +16°C° 0 mm 0 mps 746 mmHg 80%

Tomorrow, 4 July, Saturday

Time Temperature Precipitation Wind Pressure Humidity
00:00 +18°C° 0 mm 1 mps 746 mmHg 81%
01:00 +16°C° 0 mm 1 mps 746 mmHg 82%
02:00 +16°C° 0 mm 1 mps 746 mmHg 83%
03:00 +16°C° 0 mm 1 mps 746 mmHg 83%
04:00 +16°C° 0 mm 1 mps 746 mmHg 84%
05:00 +16°C° 0 mm 1 mps 746 mmHg 84%
06:00 +19°C° 0 mm 1 mps 746 mmHg 79%
07:00 +21°C° 0 mm 1 mps 747 mmHg 73%
08:00 +21°C° 0 mm 2 mps 747 mmHg 68%
09:00 +24°C° 0 mm 2 mps 747 mmHg 64%
10:00 +25°C° 0 mm 2 mps 747 mmHg 60%
11:00 +26°C° 0 mm 2 mps 748 mmHg 56%
12:00 +26°C° 0 mm 3 mps 747 mmHg 54%
13:00 +26°C° 0 mm 3 mps 747 mmHg 53%
14:00 +26°C° 0 mm 4 mps 747 mmHg 51%
15:00 +26°C° 0 mm 4 mps 747 mmHg 51%
16:00 +25°C° 0 mm 3 mps 747 mmHg 51%
17:00 +25°C° 0 mm 3 mps 747 mmHg 52%
18:00 +22°C° 0 mm 3 mps 747 mmHg 59%
19:00 +21°C° 0 mm 2 mps 747 mmHg 67%
20:00 +19°C° 0 mm 2 mps 747 mmHg 75%
21:00 +18°C° 0 mm 2 mps 747 mmHg 78%
22:00 +17°C° 0 mm 2 mps 748 mmHg 81%
23:00 +16°C° 0 mm 1 mps 748 mmHg 84%

Day after tomorrow, 5 July, Sunday

Time Temperature Precipitation Wind Pressure Humidity
00:00 +16°C° 0 mm 1 mps 748 mmHg 87%
01:00 +15°C° 0 mm 1 mps 748 mmHg 89%
02:00 +15°C° 0 mm 1 mps 748 mmHg 91%
03:00 +15°C° 0 mm 1 mps 748 mmHg 90%
04:00 +16°C° 0 mm 1 mps 748 mmHg 89%
05:00 +16°C° 0 mm 1 mps 748 mmHg 87%
06:00 +18°C° 0 mm 2 mps 748 mmHg 81%
07:00 +19°C° 0 mm 2 mps 748 mmHg 75%
08:00 +21°C° 0 mm 2 mps 747 mmHg 69%
09:00 +22°C° 0.1 mm 3 mps 747 mmHg 66%
10:00 +24°C° 0.1 mm 3 mps 747 mmHg 62%
11:00 +25°C° 0.1 mm 3 mps 747 mmHg 59%
12:00 +25°C° 0.3 mm 3 mps 747 mmHg 65%
13:00 +24°C° 0.3 mm 3 mps 746 mmHg 71%
14:00 +22°C° 0.3 mm 3 mps 746 mmHg 77%
15:00 +22°C° 0.3 mm 3 mps 746 mmHg 78%
16:00 +22°C° 0.3 mm 4 mps 746 mmHg 78%
17:00 +22°C° 0.3 mm 4 mps 746 mmHg 79%
18:00 +21°C° 0.3 mm 3 mps 745 mmHg 83%
19:00 +20°C° 0.3 mm 3 mps 745 mmHg 88%
20:00 +19°C° 0.3 mm 2 mps 745 mmHg 92%
21:00 +19°C° 0 mm 2 mps 745 mmHg 93%
22:00 +18°C° 0 mm 3 mps 745 mmHg 94%
23:00 +18°C° 0 mm 3 mps 745 mmHg 95%

6 July, Monday

Time Temperature Precipitation Wind Pressure Humidity
00:00 +17°C° 0 mm 3 mps 745 mmHg 95%
01:00 +17°C° 0 mm 3 mps 744 mmHg 95%
02:00 +17°C° 0 mm 3 mps 744 mmHg 95%
03:00 +17°C° 0 mm 4 mps 744 mmHg 95%
04:00 +17°C° 0 mm 4 mps 744 mmHg 95%
05:00 +18°C° 0 mm 4 mps 743 mmHg 95%
06:00 +19°C° 0 mm 5 mps 743 mmHg 88%
07:00 +21°C° 0 mm 5 mps 743 mmHg 81%
08:00 +23°C° 0 mm 6 mps 743 mmHg 73%
09:00 +23°C° 0.2 mm 5 mps 743 mmHg 75%
10:00 +23°C° 0.2 mm 5 mps 743 mmHg 76%
11:00 +23°C° 0.2 mm 5 mps 743 mmHg 77%
12:00 +25°C° 0.1 mm 5 mps 743 mmHg 73%
13:00 +25°C° 0.1 mm 5 mps 743 mmHg 69%
14:00 +26°C° 0.1 mm 5 mps 743 mmHg 65%
15:00 +25°C° 0.1 mm 5 mps 743 mmHg 66%
16:00 +25°C° 0.1 mm 5 mps 743 mmHg 68%
17:00 +25°C° 0.1 mm 4 mps 743 mmHg 70%
18:00 +24°C° 0 mm 3 mps 743 mmHg 73%
19:00 +22°C° 0 mm 3 mps 743 mmHg 76%
20:00 +20°C° 0 mm 2 mps 743 mmHg 80%
21:00 +19°C° 0 mm 2 mps 743 mmHg 82%
22:00 +18°C° 0 mm 2 mps 743 mmHg 84%
23:00 +17°C° 0 mm 2 mps 743 mmHg 86%

7 July, Tuesday

Time Temperature Precipitation Wind Pressure Humidity
00:00 +17°C° 0 mm 2 mps 743 mmHg 84%
01:00 +18°C° 0 mm 2 mps 743 mmHg 83%
02:00 +18°C° 0 mm 2 mps 743 mmHg 82%
03:00 +18°C° 0 mm 2 mps 743 mmHg 84%
04:00 +18°C° 0 mm 2 mps 744 mmHg 87%
05:00 +18°C° 0 mm 2 mps 744 mmHg 89%
06:00 +18°C° 0 mm 2 mps 744 mmHg 87%
07:00 +18°C° 0 mm 2 mps 744 mmHg 84%
08:00 +19°C° 0 mm 3 mps 745 mmHg 81%
09:00 +20°C° 0 mm 3 mps 745 mmHg 73%
10:00 +21°C° 0 mm 3 mps 745 mmHg 64%
11:00 +22°C° 0 mm 3 mps 745 mmHg 55%
12:00 +22°C° 0 mm 3 mps 745 mmHg 55%
13:00 +21°C° 0 mm 3 mps 745 mmHg 55%
14:00 +21°C° 0 mm 3 mps 745 mmHg 55%
15:00 +21°C° 0 mm 2 mps 745 mmHg 56%
16:00 +21°C° 0 mm 2 mps 745 mmHg 57%
17:00 +20°C° 0 mm 2 mps 745 mmHg 58%
18:00 +19°C° 0 mm 2 mps 745 mmHg 63%
19:00 +18°C° 0 mm 2 mps 745 mmHg 68%
20:00 +18°C° 0 mm 2 mps 745 mmHg 73%
21:00 +17°C° 0 mm 2 mps 745 mmHg 75%
22:00 +16°C° 0 mm 2 mps 745 mmHg 76%
23:00 +16°C° 0 mm 3 mps 745 mmHg 77%

8 July, Wednesday

Time Temperature Precipitation Wind Pressure Humidity
00:00 +14°C° 0 mm 3 mps 745 mmHg 78%
01:00 +14°C° 0 mm 2 mps 745 mmHg 78%
02:00 +14°C° 0 mm 2 mps 745 mmHg 78%
03:00 +13°C° 0 mm 2 mps 745 mmHg 79%
04:00 +13°C° 0 mm 2 mps 745 mmHg 80%
05:00 +13°C° 0 mm 2 mps 745 mmHg 81%
06:00 +14°C° 0 mm 2 mps 745 mmHg 76%
07:00 +15°C° 0 mm 2 mps 745 mmHg 70%
08:00 +16°C° 0 mm 3 mps 745 mmHg 65%
09:00 +17°C° 0 mm 3 mps 745 mmHg 61%
10:00 +18°C° 0 mm 3 mps 745 mmHg 57%
11:00 +19°C° 0 mm 3 mps 745 mmHg 53%
12:00 +19°C° 0 mm 2 mps 745 mmHg 51%
13:00 +20°C° 0 mm 2 mps 745 mmHg 50%
14:00 +20°C° 0 mm 2 mps 745 mmHg 48%
15:00 +20°C° 0.4 mm 2 mps 744 mmHg 56%
16:00 +19°C° 0.4 mm 3 mps 744 mmHg 63%
17:00 +18°C° 0.4 mm 3 mps 744 mmHg 71%
18:00 +17°C° 0.5 mm 3 mps 744 mmHg 77%
19:00 +16°C° 0.5 mm 3 mps 744 mmHg 83%
20:00 +14°C° 0.5 mm 2 mps 744 mmHg 89%
21:00 +13°C° 0.1 mm 2 mps 744 mmHg 91%
22:00 +12°C° 0.1 mm 2 mps 744 mmHg 93%
23:00 +12°C° 0.1 mm 2 mps 744 mmHg 95%
Show more